Weather History for KJYL - June, 2013

Change the Weather History Date:

Sunday, June 30, 2013

  Actual Average (KSAV) Record (KSAV)
Temperature  
Mean Temperature 80 °F 82 °F  
Max Temperature 88 °F 92 °F 102 °F (1998)
Min Temperature 72 °F 72 °F 59 °F (1958)
Degree Days  
Heating Degree Days 0 0  
Month to date heating degree days 0  
Since 1 June heating degree days 0  
Since 1 July heating degree days 1812  
Cooling Degree Days 15 17  
Month to date cooling degree days 446  
Year to date cooling degree days 849  
Since 1 June cooling degree days 446  
Growing Degree Days 30 (Base 50)    
Moisture  
Dew Point 72 °F    
Average Humidity 83    
Maximum Humidity 91    
Minimum Humidity 57    
Precipitation  
Precipitation 0.00 in 0.19 in 3.06 in (1983)
Month to date precipitation 5.95  
Year to date precipitation 22.21  
Sea Level Pressure  
Sea Level Pressure 29.80 in    
Wind  
Wind Speed 2 mph (SW)    
Max Wind Speed 12 mph    
Max Gust Speed 23 mph    
Visibility 9 miles    
Events Rain , Thunderstorm    
T = Trace of Precipitation, MM = Missing Value Source: NWS Daily Summary

Daily Weather History Graph

Daily Weather History Graph

Search for Another Location

Airport or City:

Trip Planner

Search our weather history database for the weather conditions in past years. The results will help you decide how hot, cold, wet, or windy it might be!

Date:

Astronomy

Jun. 30, 2013 Rise Set
Actual Time 6:22 AM EDT 8:38 PM EDT
Civil Twilight 5:53 AM EDT 9:06 PM EDT
Nautical Twilight 5:18 AM EDT 9:41 PM EDT
Astronomical Twilight 4:40 AM EDT 10:19 PM EDT
Moon 1:03 AM EDT (6/30) 2:05 PM EDT (6/30)
Length of Visible Light 15h 13m
Length of Day
14h 16m
Last Quarter, 45% of the Moon is Illuminated
Jun 30
Last Quarter
Jul 8
New
Jul 15
First Quarter
Jul 22
Full
Jul 29
Last Quarter

Hourly Weather History & Observations

Time (EDT) Temp. Heat Index Dew Point Humidity Pressure Visibility Wind Dir Wind Speed Gust Speed Precip Events Conditions
12:15 AM 77.9 °F - 72.1 °F 82% 29.78 in 10.0 mi Calm Calm - N/A   Clear
12:35 AM 77.7 °F - 72.1 °F 83% 29.79 in 10.0 mi SSW 3.5 mph - N/A   Clear
12:55 AM 77.5 °F - 72.1 °F 83% 29.79 in 10.0 mi Calm Calm - N/A   Mostly Cloudy
1:15 AM 77.5 °F - 72.1 °F 83% 29.78 in 10.0 mi SSW 3.5 mph - N/A   Overcast
1:35 AM 77.4 °F - 72.5 °F 85% 29.78 in 10.0 mi Calm Calm - N/A   Mostly Cloudy
1:55 AM 77.0 °F - 72.1 °F 85% 29.77 in 10.0 mi Calm Calm - N/A   Scattered Clouds
2:15 AM 76.6 °F - 72.5 °F 87% 29.77 in 10.0 mi Calm Calm - N/A   Scattered Clouds
2:35 AM 76.6 °F - 72.5 °F 87% 29.76 in 10.0 mi SSW 3.5 mph - N/A   Scattered Clouds
2:55 AM 76.6 °F - 72.5 °F 87% 29.76 in 10.0 mi Calm Calm - N/A   Clear
3:15 AM 76.5 °F - 72.5 °F 87% 29.75 in 10.0 mi SSW 3.5 mph - N/A   Clear
3:35 AM 76.5 °F - 72.5 °F 87% 29.75 in 7.0 mi Calm Calm - N/A   Clear
3:55 AM 76.5 °F - 72.7 °F 88% 29.76 in 7.0 mi Calm Calm - N/A   Scattered Clouds
4:15 AM 76.3 °F - 72.5 °F 88% 29.75 in 7.0 mi Calm Calm - N/A   Scattered Clouds
4:35 AM 76.3 °F - 72.5 °F 88% 29.75 in 10.0 mi SW 3.5 mph - N/A   Clear
4:55 AM 76.1 °F - 72.5 °F 89% 29.75 in 10.0 mi SW 3.5 mph - N/A   Clear
5:15 AM 76.1 °F - 72.5 °F 89% 29.76 in 7.0 mi SW 3.5 mph - N/A   Clear
5:35 AM 76.1 °F - 72.5 °F 89% 29.76 in 10.0 mi SW 3.5 mph - N/A   Scattered Clouds
5:55 AM 76.1 °F - 72.5 °F 89% 29.76 in 10.0 mi Calm Calm - N/A   Mostly Cloudy
6:15 AM 76.5 °F - 72.7 °F 88% 29.77 in 10.0 mi Calm Calm - N/A   Mostly Cloudy
6:35 AM 76.5 °F - 72.7 °F 88% 29.78 in 10.0 mi Calm Calm - N/A   Mostly Cloudy
6:55 AM 76.6 °F - 72.9 °F 88% 29.78 in 7.0 mi Calm Calm - N/A   Overcast
7:15 AM 77.0 °F - 73.2 °F 88% 29.79 in 10.0 mi SW 4.6 mph - N/A   Overcast
7:35 AM 77.5 °F - 73.4 °F 87% 29.80 in 10.0 mi Calm Calm - N/A   Overcast
7:55 AM 77.5 °F - 73.4 °F 87% 29.80 in 10.0 mi Calm Calm - N/A   Overcast
8:15 AM 77.9 °F - 73.0 °F 85% 29.81 in 10.0 mi WSW 5.8 mph - N/A   Overcast
8:35 AM 78.3 °F - 73.2 °F 84% 29.81 in 10.0 mi SW 3.5 mph - N/A   Overcast
8:55 AM 78.3 °F - 73.0 °F 84% 29.81 in 10.0 mi WSW 3.5 mph - N/A   Overcast
9:15 AM 79.3 °F - 73.4 °F 82% 29.81 in 10.0 mi SSW 4.6 mph - N/A   Overcast
9:35 AM 81.0 °F 86.0 °F 73.4 °F 78% 29.81 in 10.0 mi West 3.5 mph - N/A   Overcast
9:55 AM 81.5 °F 86.9 °F 73.6 °F 77% 29.81 in 10.0 mi SW 4.6 mph - N/A   Overcast
10:15 AM 82.0 °F 87.4 °F 73.0 °F 74% 29.81 in 10.0 mi SSW 5.8 mph - N/A   Mostly Cloudy
10:35 AM 83.3 °F 89.3 °F 73.2 °F 71% 29.81 in 10.0 mi SSW 5.8 mph - N/A   Scattered Clouds
10:55 AM 83.1 °F 88.9 °F 72.7 °F 71% 29.80 in 10.0 mi SW 5.8 mph - N/A   Mostly Cloudy
11:15 AM 85.1 °F 91.5 °F 72.5 °F 66% 29.80 in 10.0 mi SSW 5.8 mph - N/A   Mostly Cloudy
11:35 AM 84.9 °F 90.7 °F 72.1 °F 65% 29.80 in 10.0 mi Calm Calm - N/A   Mostly Cloudy
11:55 AM 85.6 °F 92.2 °F 72.9 °F 65% 29.81 in 10.0 mi SW 5.8 mph - N/A   Mostly Cloudy
12:15 PM 87.6 °F 93.9 °F 71.6 °F 59% 29.80 in 10.0 mi WSW 5.8 mph - N/A   Scattered Clouds
12:35 PM 86.7 °F 92.9 °F 72.0 °F 61% 29.79 in 10.0 mi SW 5.8 mph - N/A   Scattered Clouds
12:55 PM 87.4 °F 94.0 °F 72.0 °F 60% 29.79 in 10.0 mi SSW 4.6 mph - N/A   Scattered Clouds
1:15 PM 88.0 °F 94.7 °F 72.0 °F 59% 29.78 in 10.0 mi South 3.5 mph - N/A   Scattered Clouds
1:35 PM 88.2 °F 94.1 °F 71.2 °F 57% 29.77 in 10.0 mi Calm Calm - N/A   Clear
1:55 PM 87.1 °F 92.4 °F 70.5 °F 58% 29.78 in 10.0 mi NW 11.5 mph - N/A   Scattered Clouds
2:15 PM 74.8 °F - 70.0 °F 85% 29.79 in 0.5 mi NNW 5.8 mph 10.4 mph N/A Rain , Thunderstorm Heavy Thunderstorms and Rain
2:35 PM 75.6 °F - 70.9 °F 85% 29.80 in 3.0 mi WNW 11.5 mph - N/A Rain , Thunderstorm Heavy Thunderstorms and Rain
2:55 PM 74.3 °F - 70.7 °F 88% 29.78 in 1.0 mi Calm Calm - N/A Rain , Thunderstorm Heavy Thunderstorms and Rain
3:15 PM 75.9 °F - 71.6 °F 86% 29.78 in 10.0 mi Calm Calm - N/A Thunderstorm Overcast
3:35 PM 77.2 °F - 72.7 °F 86% 29.79 in 10.0 mi Calm Calm - N/A   Overcast
3:55 PM 79.7 °F - 72.3 °F 78% 29.78 in 10.0 mi WNW 5.8 mph - N/A   Scattered Clouds
4:15 PM 79.9 °F - 72.5 °F 78% 29.78 in 10.0 mi Calm Calm - N/A   Scattered Clouds
4:35 PM 80.2 °F 84.7 °F 73.4 °F 80% 29.77 in 10.0 mi WNW 3.5 mph - N/A Thunderstorm Mostly Cloudy
4:55 PM 78.4 °F - 72.1 °F 81% 29.80 in 10.0 mi South 3.5 mph - N/A Rain , Thunderstorm Thunderstorms and Rain
5:15 PM 74.1 °F - 69.6 °F 86% 29.83 in 1.2 mi NW 9.2 mph 23.0 mph N/A Rain , Thunderstorm Heavy Thunderstorms and Rain
5:35 PM 72.5 °F - 68.7 °F 88% 29.87 in 1.5 mi SW 3.5 mph - N/A Rain , Thunderstorm Heavy Thunderstorms and Rain
5:55 PM 72.1 °F - 68.9 °F 89% 29.81 in 7.0 mi Calm Calm - N/A Rain , Thunderstorm Light Thunderstorms and Rain
6:15 PM 73.0 °F - 70.0 °F 90% 29.81 in 10.0 mi SE 4.6 mph - N/A Rain Light Rain
6:35 PM 72.5 °F - 69.3 °F 90% 29.80 in 10.0 mi SSE 4.6 mph - N/A Rain Light Rain
6:55 PM 72.5 °F - 69.6 °F 91% 29.80 in 10.0 mi Calm Calm - N/A   Clear
7:15 PM 72.9 °F - 69.8 °F 90% 29.80 in 10.0 mi SSE 3.5 mph - N/A   Clear
7:35 PM 73.0 °F - 70.0 °F 90% 29.83 in 10.0 mi South 3.5 mph - N/A   Scattered Clouds
7:55 PM 73.2 °F - 70.2 °F 90% 29.83 in 10.0 mi Calm Calm - N/A   Mostly Cloudy
8:15 PM 73.2 °F - 70.2 °F 90% 29.83 in 10.0 mi Calm Calm - N/A   Scattered Clouds
8:35 PM 73.0 °F - 70.0 °F 90% 29.83 in 10.0 mi Calm Calm - N/A   Scattered Clouds
8:55 PM 72.9 °F - 70.0 °F 91% 29.83 in 10.0 mi Calm Calm - N/A   Clear
9:15 PM 72.9 °F - 70.0 °F 91% 29.84 in 10.0 mi Calm Calm - N/A   Mostly Cloudy
9:35 PM 73.0 °F - 70.2 °F 91% 29.84 in 10.0 mi Calm Calm - N/A   Mostly Cloudy
9:55 PM 73.0 °F - 70.2 °F 91% 29.84 in 10.0 mi Calm Calm - N/A   Overcast
10:15 PM 73.0 °F - 70.2 °F 91% 29.84 in 10.0 mi Calm Calm - N/A   Overcast
10:35 PM 73.0 °F - 70.2 °F 91% 29.85 in 10.0 mi Calm Calm - N/A Rain Rain
10:55 PM 73.4 °F - 70.5 °F 91% 29.85 in 4.0 mi Calm Calm - N/A Rain Light Rain
11:15 PM 73.4 °F - 70.5 °F 91% 29.85 in 4.0 mi Calm Calm - N/A Rain Light Rain
11:35 PM 73.4 °F - 70.5 °F 91% 29.86 in 10.0 mi Calm Calm - N/A   Overcast
11:55 PM 73.4 °F - 70.7 °F 91% 29.85 in 10.0 mi Calm Calm - N/A   Overcast